Terminal Aerodrome Forecast
Issued by NWS

Home | Current Version | Previous Version | Text Only | Print | Product List | Glossary On
Versions: 1 2 3 4 5 6 7 8 9 10 11 12 13 14 15 16 17 18
000
FTAK31 PAJN 301320 AAA
TAFAGY
TAF AMD
PAGY 301320Z 3013/3112 VRB05KT P6SM VCSH FEW020 BKN025 OVC045
     FM302200 22010KT P6SM SCT050 BKN100
     FM310600 VRB03KT P6SM BKN050 OVC100
      AMD LTD TO CLD VIS AND WIND=

USA.gov is the U.S. government's official web portal to all federal, state and local government web resources and services.